User: anonymous   Login
Location: Bowman Observatory
(41.0326°N, 73.6210°W)
Time: 05:10:15
(UTC-05:00)
Language:

Cosmos 2298 Rocket - Orbit

View from above orbital plane
View from above orbital plane
View from above satellite
View from above satellite

Ground track
Ground track

The orbit data is extracted from the following two-line orbital elements,

1 23432U 94083B   15030.72175197  .00000107  00000-0  48309-4 0   498
2 23432 074.0320 085.9775 0004491 155.9394 342.7180 14.33345237 51867
Epoch (UTC): 30 January 2015 17:19:19
Eccentricity: 0.0004491
inclination: 74.0320°
perigee height: 777 km
apogee height: 784 km
right ascension of ascending node: 85.9775°
argument of perigee: 155.9394°
revolutions per day: 14.33345237
mean anomaly at epoch: 342.7180°
orbit number at epoch: 5186

The dashed part of the orbit path shows where the satellite is in the earth's shadow,  

DLR